When you browse on this site, cookies collect data to enhance your experience and personalize the content and advertising you see.
Visit our Privacy Policy to learn more. By continuing to use the site, you agree to this use of cookies and data.
  • In Hungary
  • List of Countries
  • For 7 days
  • Water Temperature
  • Weather Map
  • News
  • Weather Widgets
  • user-avatar
    Login

    Hourly Weather Kolos

    Today, 23 October, Wednesday

    Time Temperature Precipitation Wind Pressure Humidity
    00:00 +13°C° 0 mm 3 mps 762 mmHg 63%
    01:00 +14°C° 0 mm 2 mps 762 mmHg 65%
    02:00 +13°C° 0 mm 2 mps 762 mmHg 67%
    03:00 +13°C° 0 mm 1 mps 762 mmHg 69%
    04:00 +12°C° 0 mm 1 mps 762 mmHg 70%
    05:00 +12°C° 0 mm 1 mps 762 mmHg 71%
    06:00 +12°C° 0 mm 1 mps 763 mmHg 72%
    07:00 +13°C° 0 mm 1 mps 763 mmHg 68%
    08:00 +14°C° 0 mm 1 mps 763 mmHg 64%
    09:00 +15°C° 0 mm 1 mps 763 mmHg 59%
    10:00 +17°C° 0 mm 2 mps 763 mmHg 53%
    11:00 +19°C° 0 mm 2 mps 763 mmHg 46%
    12:00 +20°C° 0 mm 2 mps 762 mmHg 39%
    13:00 +21°C° 0 mm 2 mps 762 mmHg 37%
    14:00 +23°C° 0 mm 2 mps 762 mmHg 34%
    15:00 +24°C° 0 mm 2 mps 762 mmHg 32%
    16:00 +21°C° 0 mm 2 mps 762 mmHg 36%
    17:00 +20°C° 0 mm 2 mps 762 mmHg 40%
    18:00 +18°C° 0 mm 2 mps 762 mmHg 44%
    19:00 +17°C° 0 mm 2 mps 762 mmHg 46%
    20:00 +17°C° 0 mm 2 mps 762 mmHg 48%
    21:00 +16°C° 0 mm 2 mps 762 mmHg 50%
    22:00 +16°C° 0 mm 2 mps 762 mmHg 52%
    23:00 +15°C° 0 mm 2 mps 762 mmHg 54%

    Tomorrow, 24 October, Thursday

    Time Temperature Precipitation Wind Pressure Humidity
    00:00 +15°C° 0 mm 1 mps 761 mmHg 55%
    01:00 +14°C° 0 mm 1 mps 762 mmHg 57%
    02:00 +14°C° 0 mm 1 mps 762 mmHg 59%
    03:00 +13°C° 0 mm 1 mps 762 mmHg 61%
    04:00 +13°C° 0 mm 1 mps 762 mmHg 63%
    05:00 +13°C° 0 mm 1 mps 762 mmHg 64%
    06:00 +11°C° 0 mm 0 mps 762 mmHg 66%
    07:00 +13°C° 0 mm 0 mps 762 mmHg 62%
    08:00 +15°C° 0 mm 1 mps 762 mmHg 59%
    09:00 +16°C° 0 mm 1 mps 762 mmHg 55%
    10:00 +19°C° 0 mm 1 mps 762 mmHg 50%
    11:00 +20°C° 0 mm 1 mps 762 mmHg 45%
    12:00 +22°C° 0 mm 1 mps 762 mmHg 40%
    13:00 +22°C° 0 mm 1 mps 761 mmHg 38%
    14:00 +23°C° 0 mm 1 mps 761 mmHg 37%
    15:00 +23°C° 0 mm 1 mps 761 mmHg 36%
    16:00 +22°C° 0 mm 1 mps 761 mmHg 40%
    17:00 +20°C° 0 mm 1 mps 760 mmHg 44%
    18:00 +19°C° 0 mm 1 mps 760 mmHg 47%
    19:00 +18°C° 0 mm 1 mps 760 mmHg 49%
    20:00 +18°C° 0 mm 1 mps 760 mmHg 51%
    21:00 +16°C° 0 mm 1 mps 761 mmHg 53%
    22:00 +15°C° 0 mm 1 mps 760 mmHg 55%
    23:00 +14°C° 0 mm 0 mps 760 mmHg 56%

    Day after tomorrow, 25 October, Friday

    Time Temperature Precipitation Wind Pressure Humidity
    00:00 +13°C° 0 mm 0 mps 760 mmHg 58%
    01:00 +13°C° 0 mm 0 mps 760 mmHg 59%
    02:00 +13°C° 0 mm 0 mps 760 mmHg 61%
    03:00 +12°C° 0 mm 0 mps 760 mmHg 62%
    04:00 +12°C° 0 mm 0 mps 760 mmHg 63%
    05:00 +12°C° 0 mm 0 mps 760 mmHg 65%
    06:00 +12°C° 0 mm 0 mps 760 mmHg 66%
    07:00 +13°C° 0 mm 0 mps 760 mmHg 62%
    08:00 +14°C° 0 mm 0 mps 760 mmHg 58%
    09:00 +15°C° 0 mm 0 mps 760 mmHg 54%
    10:00 +17°C° 0 mm 0 mps 760 mmHg 49%
    11:00 +20°C° 0 mm 1 mps 760 mmHg 44%
    12:00 +22°C° 0 mm 1 mps 760 mmHg 39%
    13:00 +22°C° 0 mm 1 mps 760 mmHg 38%
    14:00 +23°C° 0 mm 1 mps 759 mmHg 36%
    15:00 +23°C° 0 mm 1 mps 759 mmHg 34%
    16:00 +22°C° 0 mm 1 mps 759 mmHg 39%
    17:00 +20°C° 0 mm 1 mps 759 mmHg 43%
    18:00 +17°C° 0 mm 0 mps 759 mmHg 47%
    19:00 +18°C° 0 mm 1 mps 759 mmHg 49%
    20:00 +16°C° 0 mm 1 mps 760 mmHg 51%
    21:00 +16°C° 0 mm 1 mps 760 mmHg 54%
    22:00 +15°C° 0 mm 1 mps 760 mmHg 55%
    23:00 +15°C° 0 mm 1 mps 760 mmHg 57%

    26 October, Saturday

    Time Temperature Precipitation Wind Pressure Humidity
    00:00 +15°C° 0 mm 1 mps 760 mmHg 59%
    01:00 +14°C° 0 mm 1 mps 760 mmHg 60%
    02:00 +14°C° 0 mm 1 mps 760 mmHg 62%
    03:00 +14°C° 0 mm 1 mps 760 mmHg 63%
    04:00 +13°C° 0 mm 1 mps 760 mmHg 65%
    05:00 +13°C° 0 mm 1 mps 760 mmHg 67%
    06:00 +12°C° 0 mm 1 mps 760 mmHg 69%
    07:00 +14°C° 0 mm 1 mps 760 mmHg 65%
    08:00 +15°C° 0 mm 1 mps 761 mmHg 61%
    09:00 +16°C° 0 mm 1 mps 761 mmHg 57%
    10:00 +19°C° 0 mm 1 mps 761 mmHg 52%
    11:00 +20°C° 0 mm 1 mps 761 mmHg 47%
    12:00 +22°C° 0 mm 1 mps 761 mmHg 42%
    13:00 +22°C° 0 mm 1 mps 760 mmHg 41%
    14:00 +22°C° 0 mm 1 mps 760 mmHg 40%
    15:00 +23°C° 0 mm 1 mps 760 mmHg 39%
    16:00 +21°C° 0 mm 1 mps 760 mmHg 44%
    17:00 +20°C° 0 mm 1 mps 760 mmHg 48%
    18:00 +18°C° 0 mm 1 mps 760 mmHg 52%
    19:00 +18°C° 0 mm 1 mps 760 mmHg 54%
    20:00 +16°C° 0 mm 1 mps 760 mmHg 57%
    21:00 +16°C° 0 mm 1 mps 760 mmHg 59%
    22:00 +15°C° 0 mm 1 mps 760 mmHg 61%
    23:00 +15°C° 0 mm 1 mps 760 mmHg 64%

    27 October, Sunday

    Time Temperature Precipitation Wind Pressure Humidity
    00:00 +14°C° 0 mm 1 mps 760 mmHg 66%
    01:00 +14°C° 0 mm 1 mps 760 mmHg 67%
    02:00 +14°C° 0 mm 1 mps 760 mmHg 69%
    03:00 +13°C° 0 mm 1 mps 760 mmHg 70%
    04:00 +13°C° 0 mm 1 mps 760 mmHg 72%
    05:00 +12°C° 0 mm 0 mps 760 mmHg 73%
    06:00 +12°C° 0 mm 0 mps 760 mmHg 74%
    07:00 +14°C° 0 mm 1 mps 760 mmHg 71%
    08:00 +15°C° 0 mm 1 mps 760 mmHg 68%
    09:00 +16°C° 0 mm 1 mps 760 mmHg 65%
    10:00 +18°C° 0 mm 1 mps 760 mmHg 61%
    11:00 +19°C° 0 mm 1 mps 760 mmHg 57%
    12:00 +20°C° 0 mm 1 mps 759 mmHg 53%
    13:00 +21°C° 0 mm 1 mps 759 mmHg 50%
    14:00 +21°C° 0 mm 1 mps 759 mmHg 48%
    15:00 +22°C° 0 mm 1 mps 758 mmHg 46%
    16:00 +21°C° 0 mm 1 mps 758 mmHg 51%
    17:00 +19°C° 0 mm 1 mps 758 mmHg 55%
    18:00 +16°C° 0 mm 0 mps 758 mmHg 60%
    19:00 +15°C° 0 mm 0 mps 758 mmHg 61%
    20:00 +16°C° 0 mm 1 mps 758 mmHg 63%
    21:00 +15°C° 0 mm 1 mps 758 mmHg 65%
    22:00 +15°C° 0 mm 1 mps 758 mmHg 67%
    23:00 +15°C° 0 mm 1 mps 758 mmHg 68%

    28 October, Monday

    Time Temperature Precipitation Wind Pressure Humidity
    00:00 +14°C° 0 mm 1 mps 758 mmHg 70%
    01:00 +14°C° 0 mm 1 mps 758 mmHg 71%
    02:00 +14°C° 0 mm 1 mps 758 mmHg 72%
    03:00 +13°C° 0 mm 1 mps 758 mmHg 73%
    04:00 +13°C° 0 mm 1 mps 758 mmHg 75%
    05:00 +13°C° 0 mm 1 mps 758 mmHg 76%
    06:00 +13°C° 0 mm 1 mps 757 mmHg 77%
    07:00 +14°C° 0 mm 1 mps 757 mmHg 72%
    08:00 +15°C° 0 mm 1 mps 757 mmHg 67%
    09:00 +16°C° 0 mm 1 mps 758 mmHg 62%
    10:00 +19°C° 0 mm 1 mps 757 mmHg 57%
    11:00 +19°C° 0 mm 2 mps 757 mmHg 52%
    12:00 +21°C° 0 mm 2 mps 757 mmHg 47%
    13:00 +21°C° 0 mm 2 mps 757 mmHg 47%
    14:00 +22°C° 0 mm 3 mps 757 mmHg 46%
    15:00 +22°C° 0 mm 3 mps 756 mmHg 46%
    16:00 +20°C° 0 mm 3 mps 756 mmHg 51%
    17:00 +19°C° 0 mm 3 mps 756 mmHg 56%
    18:00 +17°C° 0 mm 2 mps 756 mmHg 61%
    19:00 +17°C° 0 mm 2 mps 756 mmHg 65%
    20:00 +16°C° 0 mm 2 mps 756 mmHg 68%
    21:00 +15°C° 0 mm 2 mps 757 mmHg 72%
    22:00 +15°C° 0 mm 2 mps 757 mmHg 75%
    23:00 +14°C° 0 mm 3 mps 756 mmHg 77%

    29 October, Tuesday

    Time Temperature Precipitation Wind Pressure Humidity
    00:00 +13°C° 0 mm 3 mps 756 mmHg 79%
    01:00 +14°C° 0 mm 3 mps 756 mmHg 79%
    02:00 +14°C° 0 mm 4 mps 756 mmHg 78%
    03:00 +14°C° 0 mm 4 mps 756 mmHg 78%
    04:00 +14°C° 0 mm 4 mps 756 mmHg 77%
    05:00 +15°C° 0 mm 5 mps 756 mmHg 77%
    06:00 +15°C° 0 mm 5 mps 756 mmHg 77%
    07:00 +15°C° 0 mm 5 mps 756 mmHg 74%
    08:00 +16°C° 0 mm 6 mps 756 mmHg 71%
    09:00 +16°C° 0 mm 6 mps 756 mmHg 69%
    10:00 +17°C° 0.1 mm 6 mps 756 mmHg 67%
    11:00 +17°C° 0.1 mm 7 mps 756 mmHg 64%
    12:00 +17°C° 0.1 mm 7 mps 756 mmHg 62%
    13:00 +16°C° 0.5 mm 7 mps 756 mmHg 68%
    14:00 +15°C° 0.5 mm 6 mps 756 mmHg 74%
    15:00 +14°C° 0.5 mm 5 mps 756 mmHg 80%
    16:00 +13°C° 1.4 mm 5 mps 756 mmHg 82%
    17:00 +12°C° 1.4 mm 4 mps 756 mmHg 84%
    18:00 +11°C° 1.4 mm 4 mps 756 mmHg 87%
    19:00 +11°C° 0.5 mm 4 mps 756 mmHg 82%
    20:00 +11°C° 0.5 mm 3 mps 757 mmHg 77%
    21:00 +11°C° 0.5 mm 3 mps 757 mmHg 72%
    22:00 +10°C° 0.4 mm 3 mps 757 mmHg 71%
    23:00 +10°C° 0.4 mm 2 mps 757 mmHg 69%
    Show more